This demonstration page uses our WeatherBlox Daily Observations layout. Learn more.

Hourly Observations for May 2, 2015

Temp ( °F °C ) Dew Point ( °F °C ) Humidity (%) Winds ( mph kmh ) Pressure ( in mb ) Visibility ( mi km ) Precip ( " mm )
12:15 am 00:15 Mostly Cloudy 61 16.3 52 11.3 72 72 SE 7 11 29.91 1013 10 16.0934 0 0
12:35 am 00:35 Partly Cloudy 61 15.9 52 11 73 73 SE 7 11 29.91 1013 10 16.0934 0 0
12:55 am 00:55 Partly Cloudy 61 16.3 51 10.6 69 69 SSE 7 11 29.91 1013 10 16.0934 0 0
1:15 am 01:15 Partly Cloudy 62 16.5 50 10.1 66 66 SSE 7 11 29.91 1013 10 16.0934 0 0
1:35 am 01:35 Partly Cloudy 64 17.5 49 9.5 60 60 S 12 19 29.91 1013 10 16.0934 0 0
1:55 am 01:55 Partly Cloudy 62 16.7 49 9.5 63 63 S 8 13 29.88 1012 10 16.0934 0 0
2:15 am 02:15 Clear 62 16.5 49 9.3 63 63 S 10 17 29.88 1012 10 16.0934 0 0
2:35 am 02:35 Clear 62 16.7 48 8.8 60 60 S 13 20 29.88 1012 10 16.0934 0 0
2:55 am 02:55 Clear 62 16.5 48 8.7 60 60 S 14 22 29.88 1012 10 16.0934 0 0
3:15 am 03:15 Clear 61 16.2 47 8.6 61 61 S 9 15 29.88 1012 10 16.0934 0 0
3:35 am 03:35 Partly Cloudy 61 15.9 47 8.6 62 62 S 8 13 29.85 1011 10 16.0934 0 0
3:55 am 03:55 Partly Cloudy 60 15.8 48 8.7 63 63 S 9 15 29.85 1011 10 16.0934 0 0
4:15 am 04:15 Partly Cloudy 60 15.6 48 8.9 65 65 SSW 8 13 29.85 1011 10 16.0934 0 0
4:35 am 04:35 Mostly Cloudy 60 15.8 48 9 64 64 SSW 10 17 29.85 1011 10 16.0934 0 0
4:55 am 04:55 Partly Cloudy 59 15.1 48 9 67 67 SSW 8 13 29.88 1012 10 16.0934 0 0
5:15 am 05:15 Clear 59 14.9 48 8.9 68 68 SSW 9 15 29.88 1012 10 16.0934 0 0
5:35 am 05:35 Clear 58 14.5 48 9 70 70 SW 9 15 29.88 1012 10 16.0934 0 0
5:55 am 05:55 Clear 57 14 48 8.8 71 71 SW 7 11 29.88 1012 10 16.0934 0 0
6:15 am 06:15 Clear 57 14 48 8.7 71 71 SSW 7 11 29.88 1012 10 16.0934 0 0
6:35 am 06:35 Sunny 56 13.2 47 8.6 74 74 SSW 9 15 29.88 1012 10 16.0934 0 0
6:55 am 06:55 Sunny 56 13.5 48 9 74 74 SSW 8 13 29.88 1012 10 16.0934 0 0
7:15 am 07:15 Sunny 56 13.4 48 9.1 75 75 SSW 8 13 29.88 1012 10 16.0934 0 0
7:35 am 07:35 Sunny 58 14.4 49 9.5 73 73 SSW 8 13 29.88 1012 10 16.0934 0 0
7:55 am 07:55 Sunny 60 15.6 50 10 70 70 SSW 8 13 29.85 1011 10 16.0934 0 0
8:15 am 08:15 Sunny 62 16.9 51 10.4 66 66 SW 6 9 29.85 1011 10 16.0934 0 0
8:35 am 08:35 Sunny 65 18.2 50 10.2 60 60 SW 7 11 29.85 1011 10 16.0934 0 0
8:55 am 08:55 Sunny 66 18.7 51 10.3 58 58 SW 9 15 29.83 1010 10 16.0934 0 0
9:15 am 09:15 Sunny 67 19.5 51 10.4 56 56 SW 10 17 29.83 1010 10 16.0934 0 0
9:35 am 09:35 Sunny 68 20.2 51 10.5 54 54 SW 10 17 29.83 1010 10 16.0934 0 0
9:55 am 09:55 Sunny 70 21.2 51 10.3 50 50 SW 12 19 29.83 1010 10 16.0934 0 0
10:15 am 10:15 Sunny 71 21.9 50 10.2 48 48 SW 9 15 29.83 1010 10 16.0934 0 0
10:35 am 10:35 Sunny 73 22.5 50 9.9 45 45 SW 10 17 29.77 1008 10 16.0934 0 0
10:55 am 10:55 Sunny 73 23 50 10.1 44 44 SW 10 17 29.77 1008 10 16.0934 0 0
11:15 am 11:15 Sunny 75 24 50 10 41 41 SW 8 13 29.77 1008 10 16.0934 0 0
11:35 am 11:35 Sunny 76 24.4 49 9.4 39 39 SW 9 15 29.77 1008 10 16.0934 0 0
11:55 am 11:55 Sunny 77 24.9 50 9.8 39 39 SSW 10 17 29.77 1008 10 16.0934 0 0
12:15 pm 12:15 Sunny 78 25.5 49 9.2 36 36 S 9 15 29.74 1007 10 16.0934 0 0
12:35 pm 12:35 Sunny 79 25.9 48 8.8 34 34 SSW 12 19 29.71 1006 10 16.0934 0 0
12:55 pm 12:55 Sunny 79 26.2 48 8.8 33 33 S 9 15 29.71 1006 10 16.0934 0 0
1:15 pm 13:15 Sunny 80 26.9 47 8.5 31 31 SSW 12 19 29.68 1005 10 16.0934 0 0
1:35 pm 13:35 Sunny 81 27 47 8.3 31 31 S 12 19 29.68 1005 10 16.0934 0 0
1:55 pm 13:55 Sunny 81 27.3 46 8 30 30 S 8 13 29.68 1005 10 16.0934 0 0
2:15 pm 14:15 Sunny 82 27.7 46 7.5 28 28 SSW 10 17 29.68 1005 10 16.0934 0 0
2:35 pm 14:35 Sunny 82 27.9 47 8.2 29 29 SSW 15 24 29.68 1005 10 16.0934 0 0
2:55 pm 14:55 Sunny 83 28.1 46 7.8 28 28 SSW 12 19 29.65 1004 10 16.0934 0 0
3:15 pm 15:15 Sunny 83 28.5 46 7.8 27 27 SW 10 17 29.62 1003 10 16.0934 0 0
3:35 pm 15:35 Sunny 83 28.4 45 7.4 27 27 S 16 26 29.65 1004 10 16.0934 0 0
3:55 pm 15:55 Sunny 84 28.8 46 8 27 27 SSW 14 22 29.62 1003 10 16.0934 0 0
4:15 pm 16:15 Sunny 85 29.2 46 7.6 26 26 SSW 16 26 29.62 1003 10 16.0934 0 0
4:35 pm 16:35 Sunny 84 28.7 45 7 25 25 S 13 20 29.62 1003 10 16.0934 0 0
4:55 pm 16:55 Sunny 84 28.9 44 6.9 25 25 S 13 20 29.62 1003 10 16.0934 0 0
5:15 pm 17:15 Sunny 84 28.7 43 5.9 24 24 SSW 15 24 29.59 1002 10 16.0934 0 0
5:35 pm 17:35 Sunny 84 29.1 43 6.1 23 23 S 16 26 29.59 1002 10 16.0934 0 0
5:55 pm 17:55 Sunny 84 28.9 43 6.1 24 24 SSW 15 24 29.59 1002 10 16.0934 0 0
6:15 pm 18:15 Sunny 83 28.1 42 5.4 24 24 S 14 22 29.62 1003 10 16.0934 0 0
6:35 pm 18:35 Sunny 82 28 42 5.3 24 24 SSW 16 26 29.62 1003 10 16.0934 0 0
6:55 pm 18:55 Sunny 82 28 41 5.1 23 23 SSW 16 26 29.62 1003 10 16.0934 0 0
7:15 pm 19:15 Sunny 82 27.6 42 5.3 24 24 SSW 18 30 29.62 1003 10 16.0934 0 0
7:35 pm 19:35 Sunny 81 27 42 5.5 25 25 S 15 24 29.59 1002 10 16.0934 0 0
7:55 pm 19:55 Sunny 79 26.2 43 6.3 28 28 S 14 22 29.59 1002 10 16.0934 0 0
8:15 pm 20:15 Sunny 78 25.8 44 6.6 29 29 S 17 28 29.59 1002 10 16.0934 0 0
8:35 pm 20:35 Clear 78 25.3 44 6.7 30 30 SSW 14 22 29.59 1002 10 16.0934 0 0
8:55 pm 20:55 Clear 76 24.7 44 6.8 32 32 S 9 15 29.59 1002 10 16.0934 0 0
9:15 pm 21:15 Clear 75 23.7 44 6.8 34 34 SSW 9 15 29.65 1004 10 16.0934 0 0
9:35 pm 21:35 Clear 71 21.8 46 7.6 40 40 SW 6 9 29.65 1004 10 16.0934 0 0
9:55 pm 21:55 Clear 69 20.4 46 8 45 45 SW 5 7 29.68 1005 10 16.0934 0 0
10:15 pm 22:15 Clear 70 21 46 7.6 42 42 SSW 5 7 29.65 1004 10 16.0934 0 0
10:35 pm 22:35 Clear 69 20.3 46 7.6 44 44 SSW 8 13 29.68 1005 10 16.0934 0 0
10:55 pm 22:55 Clear 69 20.8 46 7.5 42 42 S 7 11 29.65 1004 10 16.0934 0 0
11:15 pm 23:15 Clear 67 19.5 46 8 48 48 S 7 11 29.68 1005 10 16.0934 0 0
11:35 pm 23:35 Clear 67 19.3 47 8.5 50 50 S 10 17 29.68 1005 10 16.0934 0 0
11:55 pm 23:55 Clear 67 19.5 48 9.1 51 51 S 10 17 29.68 1005 10 16.0934 0 0

Powered by AerisWeather